| time (UTC) | temp C | wind direction | speed KPH | gust KPH | rain 1hr cm | rain 24hr cm | rain mn cm | humidity % | barometer mb |
| 20260510104532 | 16 | 0 | 0.0 | 0.0 | 0.00 | 0.00 | 0.00 | 96 | 1014.4 |
| 20260510103036 | 15 | 0 | 0.0 | 0.0 | 0.00 | 0.00 | 0.00 | 95 | 1014.6 |
| 20260510101535 | 15 | 0 | 0.0 | 0.0 | 0.00 | 0.00 | 0.00 | 95 | 1014.4 |
| 20260510100056 | 15 | 0 | 0.0 | 0.0 | 0.00 | 0.00 | 0.00 | 95 | 1014.3 |
| 20260510094546 | 15 | 0 | 0.0 | 0.0 | 0.00 | 0.00 | 0.00 | 95 | 1014.2 |
| 20260510093032 | 15 | 0 | 0.0 | 0.0 | 0.00 | 0.00 | 0.00 | 95 | 1013.8 |
| 20260510091530 | 16 | 0 | 0.0 | 0.0 | 0.00 | 0.00 | 0.00 | 95 | 1013.8 |
| 20260510090045 | 16 | 0 | 0.0 | 0.0 | 0.00 | 0.00 | 0.00 | 94 | 1013.8 |
| 20260510084546 | 16 | 0 | 0.0 | 0.0 | 0.00 | 0.00 | 0.00 | 94 | 1013.6 |
| 20260510083033 | 16 | 0 | 0.0 | 0.0 | 0.00 | 0.00 | 0.00 | 94 | 1013.2 |
| 20260510081548 | 16 | 0 | 0.0 | 0.0 | 0.00 | 0.00 | 0.00 | 94 | 1013.1 |
| 20260510080032 | 16 | 0 | 0.0 | 0.0 | 0.00 | 0.00 | 0.00 | 93 | 1013.2 |
| 20260510074534 | 16 | 0 | 0.0 | 0.0 | 0.00 | 0.00 | 0.00 | 93 | 1013.0 |
| 20260510073033 | 16 | 0 | 0.0 | 0.0 | 0.00 | 0.00 | 0.00 | 93 | 1013.0 |
| 20260510071539 | 16 | 0 | 0.0 | 0.0 | 0.00 | 0.00 | 0.00 | 92 | 1012.9 |
| 20260510070039 | 16 | 0 | 0.0 | 0.0 | 0.00 | 0.00 | 0.00 | 92 | 1012.7 |
| 20260510064532 | 16 | 0 | 0.0 | 0.0 | 0.00 | 0.00 | 0.00 | 91 | 1012.9 |
| 20260510063035 | 16 | 0 | 0.0 | 0.0 | 0.00 | 0.00 | 0.00 | 91 | 1013.3 |
| 20260510061532 | 17 | 0 | 0.0 | 0.0 | 0.00 | 0.00 | 0.00 | 89 | 1013.3 |
| 20260510060031 | 17 | 0 | 0.0 | 0.0 | 0.00 | 0.00 | 0.00 | 89 | 1013.1 |
| 20260510054530 | 17 | 0 | 0.0 | 0.0 | 0.00 | 0.00 | 0.00 | 88 | 1013.1 |
| 20260510053030 | 17 | 0 | 0.0 | 0.0 | 0.00 | 0.00 | 0.00 | 89 | 1012.9 |
| 20260510051536 | 17 | 0 | 0.0 | 0.0 | 0.00 | 0.00 | 0.00 | 88 | 1012.7 |
| 20260510050035 | 17 | 0 | 0.0 | 0.0 | 0.00 | 0.00 | 0.00 | 89 | 1012.7 |
| 20260510044534 | 17 | 0 | 0.0 | 0.0 | 0.00 | 0.00 | 0.00 | 89 | 1012.8 |
| 20260510043039 | 17 | 0 | 0.0 | 0.0 | 0.00 | 0.00 | 0.00 | 89 | 1012.6 |
| 20260510041534 | 18 | 159 | 1.6 | 3.2 | 0.00 | 0.00 | 0.00 | 89 | 1012.6 |
| 20260510040035 | 18 | 0 | 0.0 | 0.0 | 0.00 | 0.00 | 0.00 | 85 | 1012.5 |
| 20260510034540 | 18 | 0 | 0.0 | 0.0 | 0.00 | 0.00 | 0.00 | 85 | 1012.4 |
| 20260510033035 | 18 | 0 | 0.0 | 0.0 | 0.00 | 0.00 | 0.00 | 84 | 1012.2 |
| 20260510031535 | 18 | 0 | 0.0 | 0.0 | 0.00 | 0.00 | 0.00 | 83 | 1012.0 |
| 20260510030037 | 19 | 0 | 0.0 | 0.0 | 0.00 | 0.00 | 0.00 | 83 | 1012.0 |
| 20260510024534 | 19 | 0 | 0.0 | 0.0 | 0.00 | 0.00 | 0.00 | 81 | 1012.0 |
| 20260510023036 | 20 | 0 | 0.0 | 0.0 | 0.00 | 0.00 | 0.00 | 80 | 1011.8 |
| 20260510021535 | 20 | 0 | 0.0 | 0.0 | 0.00 | 0.00 | 0.00 | 79 | 1011.7 |
| 20260510020036 | 20 | 0 | 0.0 | 0.0 | 0.00 | 0.00 | 0.00 | 78 | 1011.6 |
| 20260510014531 | 21 | 0 | 0.0 | 0.0 | 0.00 | 0.00 | 0.00 | 78 | 1011.5 |
| 20260510013033 | 22 | 0 | 0.0 | 0.0 | 0.00 | 0.00 | 0.00 | 77 | 1011.3 |
| 20260510011539 | 22 | 0 | 0.0 | 0.0 | 0.00 | 0.00 | 0.00 | 73 | 1011.1 |
| 20260510010029 | 23 | 0 | 0.0 | 0.0 | 0.00 | 0.00 | 0.00 | 70 | 1010.9 |
| 20260510004532 | 25 | 0 | 0.0 | 0.0 | 0.00 | 0.00 | 0.00 | 64 | 1010.7 |
| 20260510003031 | 27 | 0 | 0.0 | 0.0 | 0.00 | 0.00 | 0.00 | 61 | 1010.6 |
| 20260510001532 | 27 | 0 | 0.0 | 1.6 | 0.00 | 0.00 | 0.00 | 60 | 1010.6 |
| 20260510000054 | 28 | 149 | 1.6 | 1.6 | 0.00 | 0.00 | 0.00 | 55 | 1010.5 |
| 20260509234545 | 28 | 0 | 0.0 | 3.2 | 0.00 | 0.00 | 0.00 | 53 | 1010.3 |
| 20260509233034 | 28 | 155 | 1.6 | 3.2 | 0.00 | 0.00 | 0.00 | 52 | 1010.1 |
| 20260509231532 | 28 | 139 | 0.0 | 4.8 | 0.00 | 0.00 | 0.00 | 48 | 1010.1 |
| 20260509230037 | 28 | 125 | 1.6 | 4.8 | 0.00 | 0.00 | 0.00 | 51 | 1010.0 |
| 20260509224533 | 29 | 150 | 3.2 | 8.0 | 0.00 | 0.00 | 0.00 | 55 | 1009.8 |
| 20260509223036 | 30 | 0 | 0.0 | 3.2 | 0.00 | 0.00 | 0.00 | 47 | 1009.8 |
| 20260509221535 | 28 | 0 | 0.0 | 6.4 | 0.00 | 0.00 | 0.00 | 51 | 1009.8 |
| 20260509220036 | 28 | 158 | 1.6 | 6.4 | 0.00 | 0.00 | 0.00 | 54 | 1009.6 |
| 20260509214535 | 29 | 134 | 4.8 | 8.0 | 0.00 | 0.00 | 0.00 | 52 | 1009.6 |
| 20260509213038 | 30 | 0 | 1.6 | 4.8 | 0.00 | 0.00 | 0.00 | 45 | 1009.7 |
| 20260509211534 | 31 | 5 | 1.6 | 4.8 | 0.00 | 0.00 | 0.00 | 42 | 1009.9 |
| 20260509210042 | 30 | 0 | 1.6 | 4.8 | 0.00 | 0.00 | 0.00 | 44 | 1010.1 |
| 20260509204539 | 30 | 129 | 0.0 | 3.2 | 0.00 | 0.00 | 0.00 | 43 | 1010.3 |
| 20260509203033 | 29 | 108 | 0.0 | 4.8 | 0.00 | 0.00 | 0.00 | 45 | 1010.4 |
| 20260509201538 | 28 | 143 | 3.2 | 6.4 | 0.00 | 0.00 | 0.00 | 45 | 1010.7 |
| 20260509200032 | 28 | 141 | 1.6 | 8.0 | 0.00 | 0.00 | 0.00 | 45 | 1010.7 |
| 20260509194538 | 28 | 131 | 3.2 | 4.8 | 0.00 | 0.00 | 0.00 | 49 | 1010.7 |
| 20260509193031 | 28 | 128 | 3.2 | 4.8 | 0.00 | 0.00 | 0.00 | 49 | 1010.8 |
| 20260509191530 | 28 | 16 | 1.6 | 6.4 | 0.00 | 0.00 | 0.00 | 49 | 1010.9 |
| 20260509190034 | 28 | 153 | 0.0 | 4.8 | 0.00 | 0.00 | 0.00 | 55 | 1010.9 |
| 20260509184543 | 27 | 0 | 1.6 | 4.8 | 0.00 | 0.00 | 0.00 | 59 | 1011.0 |
| 20260509183033 | 28 | 146 | 3.2 | 4.8 | 0.00 | 0.00 | 0.00 | 55 | 1011.0 |
| 20260509181532 | 28 | 0 | 1.6 | 6.4 | 0.00 | 0.00 | 0.00 | 55 | 1011.2 |
| 20260509180032 | 27 | 108 | 0.0 | 6.4 | 0.00 | 0.00 | 0.00 | 60 | 1011.2 |
| 20260509174536 | 26 | 124 | 3.2 | 6.4 | 0.00 | 0.00 | 0.00 | 63 | 1011.3 |
| 20260509173035 | 25 | 130 | 1.6 | 6.4 | 0.00 | 0.00 | 0.00 | 66 | 1011.2 |
| 20260509171535 | 25 | 1 | 0.0 | 4.8 | 0.00 | 0.00 | 0.00 | 66 | 1011.3 |
| 20260509170030 | 25 | 152 | 1.6 | 4.8 | 0.00 | 0.00 | 0.00 | 70 | 1011.3 |
| 20260509164530 | 24 | 0 | 0.0 | 4.8 | 0.00 | 0.00 | 0.00 | 68 | 1011.3 |
| 20260509163034 | 23 | 146 | 1.6 | 8.0 | 0.00 | 0.00 | 0.00 | 74 | 1011.3 |
| 20260509161533 | 23 | 19 | 1.6 | 4.8 | 0.00 | 0.00 | 0.00 | 70 | 1011.2 |
| 20260509160040 | 23 | 0 | 0.0 | 4.8 | 0.00 | 0.00 | 0.00 | 72 | 1011.1 |
| 20260509154535 | 22 | 278 | 1.6 | 6.4 | 0.00 | 0.00 | 0.00 | 73 | 1011.2 |
| 20260509153043 | 22 | 287 | 0.0 | 4.8 | 0.00 | 0.00 | 0.00 | 76 | 1011.0 |
| 20260509151533 | 21 | 217 | 0.0 | 3.2 | 0.00 | 0.00 | 0.00 | 76 | 1010.9 |
| 20260509150038 | 21 | 0 | 0.0 | 1.6 | 0.00 | 0.00 | 0.00 | 79 | 1011.1 |
| 20260509144549 | 21 | 231 | 1.6 | 4.8 | 0.00 | 0.00 | 0.00 | 80 | 1011.2 |
| 20260509143033 | 20 | 0 | 0.0 | 3.2 | 0.00 | 0.00 | 0.00 | 83 | 1011.3 |
| 20260509141539 | 20 | 229 | 0.0 | 4.8 | 0.00 | 0.00 | 0.00 | 86 | 1011.3 |
| 20260509140034 | 19 | 198 | 0.0 | 6.4 | 0.00 | 0.00 | 0.00 | 87 | 1011.2 |
| 20260509134553 | 18 | 149 | 1.6 | 4.8 | 0.00 | 0.00 | 0.00 | 90 | 1011.3 |
| 20260509133043 | 17 | 140 | 0.0 | 3.2 | 0.00 | 0.00 | 0.00 | 93 | 1011.3 |
| 20260509131537 | 16 | 142 | 1.6 | 1.6 | 0.00 | 0.00 | 0.00 | 95 | 1011.2 |
| 20260509130044 | 16 | 152 | 1.6 | 3.2 | 0.00 | 0.00 | 0.00 | 96 | 1011.1 |
| 20260509124536 | 15 | 0 | 0.0 | 1.6 | 0.00 | 0.00 | 0.00 | 96 | 1011.0 |
| 20260509123032 | 14 | 0 | 0.0 | 0.0 | 0.00 | 0.00 | 0.00 | 95 | 1010.8 |
| 20260509121543 | 13 | 0 | 0.0 | 0.0 | 0.00 | 0.00 | 0.00 | 95 | 1010.6 |
| 20260509120035 | 13 | 0 | 0.0 | 0.0 | 0.00 | 0.00 | 0.00 | 95 | 1010.4 |
| 20260509114538 | 13 | 0 | 0.0 | 0.0 | 0.00 | 0.00 | 0.00 | 95 | 1010.4 |
| 20260509113039 | 13 | 0 | 0.0 | 0.0 | 0.00 | 0.00 | 0.00 | 94 | 1010.1 |
| 20260509111531 | 13 | 0 | 0.0 | 0.0 | 0.00 | 0.00 | 0.00 | 94 | 1010.0 |
| 20260509110034 | 13 | 0 | 0.0 | 0.0 | 0.00 | 0.00 | 0.00 | 94 | 1009.9 |